Flag for U.S.A. Weather past 2 weeks in Helena, Montana, U.S.A.

Now
29 °F

Sunny.


Feels Like: 25 °F
Forecast: 21 / 38 °F
Wind: 3 mph from Northwest

Location: Helena Regional Airport

Current Time: Dec 19, 2014 at 10:57:27 AM

Latest Report: Dec 19, 2014 at 9:53 AM


Visibility: 10 mi

Pressure: 30.10 "Hg

Humidity: 85%

Dew point: 25 °F

Location of HelenaLocation

Historic Weather in Helena — Graph

°F

Helena temperature yesterday

Maximum temperature yesterday: 30 °F (at 1:53 PM)
Minimum temperature yesterday: 22 °F (at 1:53 AM)
Average temperature yesterday: 26 °F

Past Weeks' High & Low Weather Summary

 TemperatureHumidityPressure
High62 °F (Dec 12, 1:53 PM)97% (Dec 13, 3:53 PM)30.41 "Hg (Dec 13, 3:53 PM)
Low16 °F (Dec 15, 10:53 PM)25% (Dec 12, 1:53 PM)29.65 "Hg (Dec 12, 2:53 PM)
Average32 °F77%30.14 "Hg
* Reported Dec 4 9:53 AM — Dec 19 9:53 AM, Helena, Weather by CustomWeather, © 2014

Note: Actual official high and low records may vary slightly from our data, if they occured in-between our weather recording intervals... More about our weather records

Advertising

Helena weather history for previous 24 hours

 ConditionsComfort  
Time TempWeatherWind HumidityBarometerVisibility
9:53 AM
Dec 19
29 °FSunny.3 mph85%30.10 "Hg10 mi
8:53 AM25 °FPartly sunny.No wind88%30.11 "Hg10 mi
7:53 AM25 °FPassing clouds.No wind92%30.12 "Hg10 mi
6:53 AM26 °FOvercast.No wind88%30.12 "Hg10 mi
5:53 AM24 °FPassing clouds.No wind88%30.12 "Hg10 mi
4:53 AM24 °FOvercast.No wind91%30.12 "Hg10 mi
3:53 AM23 °FOvercast.No wind92%30.13 "Hg8 mi
2:53 AM25 °FMostly cloudy.No wind88%30.13 "Hg10 mi
1:53 AM25 °FPassing clouds.No wind88%30.13 "Hg10 mi
12:53 AM23 °FPassing clouds.No wind88%30.14 "Hg10 mi
11:53 PM
Dec 18
25 °FPassing clouds.3 mph88%30.14 "Hg10 mi
10:53 PM25 °FPassing clouds.No wind85%30.15 "Hg10 mi
9:53 PM26 °FPassing clouds.No wind84%30.16 "Hg10 mi
8:53 PM27 °FPassing clouds.3 mph85%30.16 "Hg10 mi
7:53 PM26 °FPassing clouds.No wind84%30.18 "Hg10 mi
6:53 PM28 °FOvercast.No wind81%30.17 "Hg10 mi
5:53 PM29 °FOvercast.No wind79%30.16 "Hg10 mi
4:53 PM30 °FPassing clouds.No wind75%30.16 "Hg10 mi
3:53 PM30 °FSunny.5 mph75%30.14 "Hg10 mi
2:53 PM30 °FSunny.5 mph79%30.13 "Hg10 mi
1:53 PM30 °FScattered clouds.3 mph79%30.15 "Hg9 mi
12:53 PM29 °FScattered clouds.No wind82%30.16 "Hg7 mi
11:53 AM28 °FCloudy.No wind81%30.18 "Hg10 mi
10:53 AM26 °FPassing clouds.No wind88%30.21 "Hg10 mi
Weather by CustomWeather, © 2014

See weather overviewHow to use our weather pages